User: anonymous
Location: Brno
(49.2000°N, 16.6330°E)
Time: 15:03:29
(UTC+02:00)
Language:

Meteor 1-4 Rocket - Orbit

View from above orbital plane
View from above orbital plane
View from above satellite
View from above satellite

Ground track
Ground track

The orbit data is extracted from the following two-line orbital elements,

1 04394U 70037B   14292.75262226  .00010471  00000-0  45182-3 0  7081
2 04394 081.2447 071.4033 0047248 188.8849 171.1553 15.21370029416641
Epoch (UTC): 19 October 2014 18:03:46
Eccentricity: 0.0047248
inclination: 81.2447°
perigee height: 469 km
apogee height: 534 km
right ascension of ascending node: 71.4033°
argument of perigee: 188.8849°
revolutions per day: 15.21370029
mean anomaly at epoch: 171.1553°
orbit number at epoch: 41664

The dashed part of the orbit path shows where the satellite is in the earth's shadow,  

DLR